Regional Weather Roundup
Issued by NWS Upton, NY

Current Version | Previous Version | Text Only | Print | Product List | Glossary On
Versions: 1 2 3 4 5 6 7 8 9 10 11 12 13 14 15 16 17 18 19 20 21 22 23 24 25 26 27 28 29 30 31 32 33 34 35 36 37 38 39 40 41 42 43 44 45 46 47 48 49 50
801 ASUS41 KOKX 020804 RWROKX REGIONAL WEATHER ROUNDUP NATIONAL WEATHER SERVICE NEW YORK NY 400 AM EDT MON MAY 02 2016 NOTE: "FAIR" INDICATES FEW OR NO CLOUDS BELOW 12,000 FEET WITH NO SIGNIFICANT WEATHER AND/OR OBSTRUCTIONS TO VISIBILITY. NYZ071-072-176-178-NJZ106-104-020900- NEW YORK CITY METRO AREA CITY SKY/WX TMP DP RH WIND PRES REMARKS CENTRAL PARK CLOUDY 45 43 93 VRB5 30.05F FOG LAGUARDIA APRT CLOUDY 46 43 89 N6 30.03F FOG KENNEDY INTL FOG 46 44 93 N7 30.04F VSB 1/2 NEWARK/LIBERTY CLOUDY 46 45 96 N8 30.02F FOG BRNX BOT. GARD N/A 43 43 100 CALM 30.05R TETERBORO CLOUDY 45 42 89 CALM 30.02F FOG $$ NYZ177-179-078>081-020900- LONG ISLAND NEW YORK CITY SKY/WX TMP DP RH WIND PRES REMARKS FARMINGDALE CLOUDY 46 44 93 NE8 30.03S FOG ISLIP CLOUDY 46 44 93 N7 30.02S FOG SHIRLEY CLOUDY 47 45 93 N7 30.03R FOG RIVERHEAD N/A 46 45 93 E3 30.03R WESTHAMPTON CLOUDY 47 47 100 N6 30.03R FOG EAST HAMPTON CLOUDY 46 45 97 NE5 30.01S MONTAUK POINT N/A 47 46 97 NE7 30.02S $$ NYZ052-065-067-020900- HUDSON VALLEY CITY SKY/WX TMP DP RH WIND PRES REMARKS WHITE PLAINS DRIZZLE 43 42 97 N3 30.02S FOG NEWBURGH NOT AVBL MONTGOMERY CLOUDY 44 42 93 CALM 30.02S FOG POUGHKEEPSIE CLOUDY 45 41 86 CALM 30.03S ALBANY CLOUDY 45 40 82 S7 30.02F $$ NJZ001-105-106-008-010-013-015-019>022-104-020900- NEW JERSEY CITY SKY/WX TMP DP RH WIND PRES REMARKS NEWARK/LIBERTY CLOUDY 46 45 96 N8 30.02F FOG TETERBORO CLOUDY 45 42 89 CALM 30.02F FOG CALDWELL CLOUDY 44 42 93 NE6 30.03F FOG MORRISTOWN CLOUDY 45 43 93 N3 30.03F FOG SOMERVILLE CLOUDY 46 44 93 CALM 30.00F FOG SUSSEX CLOUDY 45 42 89 E3 30.01F ANDOVER N/A 44 42 93 CALM 30.00F TRENTON CLOUDY 46 45 96 E5 30.00F FOG MILLVILLE CLOUDY 48 47 96 NE7 29.99F FOG ATLANTIC CITY FOG 48 47 96 NE6 30.00F VSB 1 WRIGHTSTOWN CLOUDY 46 45 97 E5 29.99F TOMS RIVER CLOUDY 46 43 87 SE5 30.02F BELMAR CLOUDY 45 45 100 E3 30.01F FOG $$ PAZ047>061-062-071-020900- EASTERN PENNSYLVANIA CITY SKY/WX TMP DP RH WIND PRES REMARKS PHILADELPHIA LGT RAIN 49 45 86 E7 30.01F ALLENTOWN CLOUDY 48 46 93 E5 29.99F FOG SCRANTON CLOUDY 48 45 89 NE5 29.96F $$ CTZ002-004>006-009-010-012-RIZ004-006-007-MAZ004-011-015-020900- SOUTHERN NEW ENGLAND IN CT CITY SKY/WX TMP DP RH WIND PRES REMARKS BRADLEY INTL DRIZZLE 42 40 92 N9 30.04F FOG HARTFORD LGT RAIN 44 41 89 N7 30.05F FOG DANBURY CLOUDY 42 40 92 NE3 30.04F FOG WTRBRY/OXFORD N/A 41 37 87 CALM 30.05S BRIDGEPORT CLOUDY 46 43 89 NW5 30.04S MERIDEN CLOUDY 44 40 85 N7 30.04F NEW HAVEN CLOUDY 43 42 97 N8 30.03F CHESTER CLOUDY 43 43 100 N7 30.03S FOG GROTON CLOUDY 45 45 100 N9 30.01F WILLIMANTIC CLOUDY 44 41 89 N6 30.04F FOG IN RI CITY SKY/WX TMP DP RH WIND PRES REMARKS PROVIDENCE CLOUDY 45 43 93 N10 30.05S FOG BLOCK ISLAND CLOUDY 47 47 100 NE9 30.02S FOG WESTERLY CLOUDY 46 43 89 N7 30.02F IN MA CITY SKY/WX TMP DP RH WIND PRES REMARKS BOSTON DRIZZLE 46 44 93 NE8 30.07F FOG WORCESTER FOG 39 38 96 NE7 30.05S VSB 1/2 WCI 34 WESTFIELD CLOUDY 41 39 93 N6 30.05F PROVINCETOWN CLOUDY 46 46 100 E7 30.06S FOG NANTUCKET LGT RAIN 50 48 93 E12 29.99F FOG $$ ANZ330-335-338-340-345-350-353-355-020900- COASTAL MARINE OBSERVATIONS STATION/POSITION TIME SKY/WX TEMP WIND PRES VSBY WAVE AIR SEA DIR/SP/G HT/PER (UTC) (F) (DEG/KT/KT) (MB) (MI) (FT/S) NY HARB ENTRANCE 0650 47 50 30/ 8/ 10 1016.3 5/10 20S FIRE ISLAND 0650 47 48 40/ 12/ 16 1016.0 5/10 GREAT SOUTH BAY 0700 47 55 30/ 6/ 8 N/A 23 SSW MONTAUK P 0750 47 47 50/ 12/ 14 1015.1 5/ 9 15 E BARNEGAT LI 0722 51 N/A 6/11 HUDSON CANYON 0650 48 48 1015.6 6/10 KINGS POINT 0700 45 53 1016.9 EXECUTION ROCKS NOT AVBL CENTRAL LI SOUND 0700 46 40/ 10/ 12 N/A 2/ 4 EASTERN LI SOUND 0700 47 48 30/ 10/ 12 N/A ROBBINS REEF 0700 46 70/ 3/ 4 1016.5 $$ >>>>>>>>>>>>>>>>>>>>>>>>>>>> KEY <<<<<<<<<<<<<<<<<<<<<<<<<<< > < > SKY/WX - SKY CONDITION/PRESENT WEATHER < > TMP - TEMPERATURE IN FAHRENHEIT < > DP - DEWPOINT IN FAHRENHEIT < > RH - RELATIVE HUMIDITY IN PERCENT < > WIND - DIRECTION AND SPEED IN MPH < > PRES - MEAN SEA LEVEL PRESSURE IN INCHES OF HG < > WCI - WIND CHILL INDEX < > VSB - VISIBILITY IN MILES < > HX - HEAT INDEX < > TC - TEMPERATURE IN CELSIUS < > VRB - VARIABLE WIND DIRECTION < > < >>>>>>>>>>>>>>>>>>>>>>>>>>>> KEY <<<<<<<<<<<<<<<<<<<<<<<<<<<

USA.gov is the U.S. government's official web portal to all federal, state and local government web resources and services.